[[{"header":{"parameterUnit":"m.s-1","parameterCategory":1,"la1":30.2991,"la2":30.254,"lo1":-89.0895,"lo2":-89.0444,"dy":0.0017,"dx":0.0017,"nx":28,"ny":28,"refTime":"2023-07-24T03:00:00:Z","depth":0,"parameterNumber":2,"parameterNumberName":"U-component_of_WINDS"},"data":[0,0,0,0,0,0,0,0,0,0,0,0,0,0,0,0,0,0,0,0,0,0,0,0,0,0,0,0,0,0,0,0,0,0,0,0,0,0,0,0,0,0,0,0,0,0,0,0,0,0,0,0,0,0,0,0,0,0,1.8645,1.8645,0,1.8671,1.8671,1.8672,1.865,1.8649,1.8648,1.8647,1.8674,1.8675,1.8677,0,0,0,0,0,0,0,0,0,0,0,0,0,1.8575,1.8577,1.8645,1.8646,1.8646,1.8671,1.8671,1.8672,1.865,1.8649,1.8648,1.8647,1.8673,1.8675,1.8677,0,0,0,0,0,0,0,0,0,0,0,0,0,1.8604,1.8577,1.8645,1.8638,1.8638,1.8671,1.8671,1.8672,1.865,1.8649,1.8648,1.8646,1.8673,1.8675,1.8677,1.8719,0,0,1.8685,1.8686,0,0,0,0,0,0,0,0,1.8602,1.8607,1.8639,1.8639,1.8638,1.8656,1.8657,1.8688,1.8651,1.8646,1.8647,1.8646,1.8669,1.8672,1.868,1.872,1.8722,1.8685,1.8686,1.8687,1.8688,0,0,0,0,0,0,0,1.86,1.8605,1.8655,1.8639,1.8639,1.8633,1.8636,1.8662,1.8665,1.8646,1.8644,1.8648,1.8669,1.8677,1.868,1.8722,1.8685,1.8687,1.8688,1.8689,1.8795,1.8797,0,0,0,0,0,0,1.8599,1.8604,1.8655,1.8656,1.8617,1.8635,1.8638,1.8652,1.8664,1.8665,1.8649,1.8647,1.8674,1.8677,1.8681,1.8728,1.8687,1.8689,1.8691,1.8794,1.8796,1.8797,0,0,0,0,0,0,1.8598,1.8604,1.8654,1.863,1.8635,1.8638,1.8653,1.8653,1.8661,1.8667,1.8667,1.8657,1.8673,1.8678,1.8709,1.8729,1.869,1.8693,1.8792,1.8795,1.8797,1.8825,0,0,0,0,0,0,1.8596,1.8604,1.862,1.863,1.8637,1.8682,1.8655,1.8654,1.8666,1.8663,1.8675,1.8675,1.8672,1.8706,1.8711,1.8731,1.8694,1.8791,1.8793,1.8796,1.8822,1.8828,1.8833,0,0,0,0,0,1.8594,1.8628,1.8621,1.8627,1.8657,1.8683,1.8687,1.8683,1.8667,1.8683,1.8686,1.8675,1.8726,1.8709,1.8715,1.8736,1.8789,1.8793,1.8796,1.882,1.8827,1.8832,0,0,0,0,0,0,1.8621,1.8629,1.8622,1.866,1.8671,1.868,1.87,1.8691,1.8706,1.8703,1.8698,1.87,1.8733,1.8738,1.8719,1.8776,1.8755,1.876,1.8771,1.8778,1.8783,1.878,1.8696,0,0,0,0,0,1.8631,1.8651,1.8658,1.8691,1.8697,1.8697,1.8709,1.8704,1.8715,1.872,1.8725,1.8736,1.8754,1.8767,1.8784,1.8823,1.8824,1.8841,1.8846,1.885,1.8854,1.8872,1.8879,1.8808,1.8808,1.8808,0,0,1.8653,1.866,1.8673,1.8697,1.8704,1.8725,1.8701,1.8725,1.8739,1.8723,1.8753,1.8757,1.8769,1.8804,1.8819,1.8809,1.8873,1.8854,1.8857,1.8859,1.8876,1.8883,1.8889,1.881,1.881,1.8809,0,0,1.8702,1.8711,1.8738,1.8746,1.8758,1.8758,1.8764,1.8774,1.8775,1.8805,1.8793,1.881,1.8843,1.8851,1.8859,1.8909,1.8899,1.8915,1.8942,1.896,1.8965,1.897,1.8986,1.8992,1.8919,1.8919,1.8919,0,1.8728,1.8758,1.8753,1.8777,1.8786,1.8772,1.8799,1.8807,1.8824,1.8831,1.8819,1.8858,1.8865,1.89,1.8912,1.892,1.8926,1.8913,1.8965,1.897,1.8974,1.8989,1.8995,1.8921,1.8921,1.8921,1.8921,0,1.8788,1.8809,1.883,1.8845,1.8857,1.8883,1.888,1.8893,1.8888,1.8888,1.8917,1.8925,1.8943,1.8951,1.8947,1.8985,1.8978,1.8966,1.8944,1.8983,1.8997,1.9002,1.8924,1.8923,1.8922,1.8922,0,0,1.8856,1.8867,1.8874,1.888,1.8891,1.8907,1.8931,1.8947,1.8957,1.897,1.8988,1.9015,1.9003,1.9012,1.9008,1.9025,1.9061,1.901,1.901,1.9017,1.9101,1.9109,1.9115,1.9054,1.9056,1.9056,1.9099,0,1.8904,1.8944,1.894,1.8978,1.8996,1.8982,1.9002,1.9011,1.9012,1.9027,1.9029,1.9047,1.9031,1.9036,1.9052,1.9053,1.9077,1.905,1.907,1.9071,1.9066,1.9123,1.9132,1.9172,1.9105,1.9106,1.9106,0,1.8966,1.8978,1.9018,1.9024,1.9031,1.905,1.9063,1.9079,1.9087,1.9087,1.9096,1.9089,1.9111,1.909,1.912,1.9102,1.911,1.9112,1.9113,1.9114,1.909,1.9123,1.9185,1.919,1.9115,1.9115,1.9114,0,1.9008,1.9035,1.9062,1.9068,1.9076,1.9089,1.9093,1.91,1.911,1.9122,1.9127,1.9142,1.915,1.9161,1.9157,1.9143,1.9187,1.9166,1.9186,1.9186,1.9195,1.9194,1.9256,1.9203,1.9203,1.9203,1.9203,0,1.9061,1.9086,1.908,1.9097,1.9123,1.9117,1.9143,1.9146,1.9152,1.9168,1.9157,1.9172,1.9167,1.9182,1.9179,1.9203,1.9207,1.9206,1.9205,1.9206,1.9206,1.921,1.9207,1.9205,1.9204,1.9204,1.9204,0,1.9113,1.9111,1.9138,1.9143,1.9145,1.9164,1.9168,1.9182,1.9182,1.9202,1.9206,1.9206,1.9222,1.922,1.9238,1.9236,1.9265,1.9262,1.9262,1.926,1.9279,1.9277,1.9345,1.9353,1.9296,1.9297,1.9297,0,1.9146,1.9164,1.917,1.9179,1.9184,1.92,1.9209,1.9203,1.9213,1.9223,1.9236,1.9251,1.9263,1.9289,1.929,1.9304,1.9299,1.9322,1.9301,1.9301,1.9297,1.9295,1.9296,1.9326,1.9327,1.9327,1.9328,0,1.9204,1.9202,1.9215,1.9227,1.9238,1.9247,1.9256,1.9264,1.9259,1.9271,1.9286,1.9295,1.9313,1.9328,1.934,1.9344,1.9334,1.9334,1.9339,1.9339,1.9338,1.9337,1.9271,1.9332,1.9332,1.9332,1.9331,1.9331,1.9246,1.926,1.9266,1.928,1.9286,1.9294,1.9307,1.9307,1.932,1.9334,1.933,1.9348,1.9354,1.9369,1.9374,1.9387,1.9379,1.9386,1.9388,1.9389,1.939,1.9337,1.939,1.939,1.939,1.939,1.9389,0,1.9302,1.9304,1.9318,1.9329,1.934,1.933,1.9338,1.9348,1.9363,1.937,1.9381,1.9398,1.9411,1.9413,1.9426,1.9436,1.9431,1.9439,1.9437,1.9438,1.9399,1.9392,1.9442,1.9442,1.9442,1.9442,1.9442,1.9442,1.9332,1.9355,1.9353,1.9377,1.938,1.9396,1.9401,1.9408,1.9413,1.9432,1.9443,1.9444,1.9448,1.946,1.9472,1.9472,1.9476,1.9485,1.9483,1.9446,1.9441,1.9436,1.9429,1.9486,1.9486,1.952,1.9521,1.9521]},{"header":{"parameterUnit":"m.s-1","parameterCategory":1,"la1":30.2991,"la2":30.254,"lo1":-89.0895,"lo2":-89.0444,"dy":0.0017,"dx":0.0017,"nx":28,"ny":28,"refTime":"2023-07-24T03:00:00:Z","depth":0,"parameterNumber":3,"parameterNumberName":"V-component_of_WINDS"},"data":[0,0,0,0,0,0,0,0,0,0,0,0,0,0,0,0,0,0,0,0,0,0,0,0,0,0,0,0,0,0,0,0,0,0,0,0,0,0,0,0,0,0,0,0,0,0,0,0,0,0,0,0,0,0,0,0,0,0,-0.6708,-0.6708,0,-0.6713,-0.6713,-0.6713,-0.6721,-0.6721,-0.6721,-0.6721,-0.6724,-0.6724,-0.6724,0,0,0,0,0,0,0,0,0,0,0,0,0,-0.6704,-0.6704,-0.6708,-0.6708,-0.6708,-0.6712,-0.6713,-0.6713,-0.6721,-0.6721,-0.6721,-0.6721,-0.6724,-0.6724,-0.6724,0,0,0,0,0,0,0,0,0,0,0,0,0,-0.6707,-0.6704,-0.6708,-0.6712,-0.6713,-0.6712,-0.6713,-0.6713,-0.672,-0.6721,-0.6721,-0.6721,-0.6724,-0.6724,-0.6724,-0.6718,0,0,-0.6723,-0.6723,0,0,0,0,0,0,0,0,-0.6707,-0.6707,-0.6712,-0.6712,-0.6713,-0.6716,-0.6712,-0.6714,-0.672,-0.6718,-0.6721,-0.6721,-0.6721,-0.6721,-0.6721,-0.6718,-0.6719,-0.6723,-0.6723,-0.6723,-0.6723,0,0,0,0,0,0,0,-0.6707,-0.6707,-0.671,-0.6712,-0.6712,-0.6714,-0.6715,-0.6713,-0.6718,-0.6718,-0.6718,-0.6719,-0.6721,-0.6721,-0.6721,-0.6719,-0.6723,-0.6723,-0.6723,-0.6723,-0.6712,-0.6712,0,0,0,0,0,0,-0.6706,-0.6707,-0.6709,-0.671,-0.671,-0.6714,-0.6715,-0.6715,-0.6718,-0.6719,-0.6719,-0.6719,-0.6722,-0.6722,-0.6722,-0.6716,-0.6723,-0.6723,-0.6723,-0.6712,-0.6712,-0.6712,0,0,0,0,0,0,-0.6706,-0.6706,-0.6709,-0.6709,-0.6709,-0.6714,-0.6714,-0.6715,-0.6715,-0.6719,-0.6719,-0.6718,-0.6722,-0.6722,-0.6719,-0.6716,-0.6723,-0.6723,-0.6713,-0.6712,-0.6712,-0.6704,0,0,0,0,0,0,-0.6706,-0.6706,-0.6704,-0.6708,-0.6709,-0.6707,-0.6714,-0.6715,-0.6715,-0.6716,-0.6718,-0.6719,-0.6722,-0.6719,-0.6719,-0.6716,-0.6723,-0.6713,-0.6713,-0.6712,-0.6705,-0.6704,-0.6703,0,0,0,0,0,-0.6706,-0.6701,-0.6704,-0.6705,-0.6707,-0.6707,-0.6707,-0.6711,-0.6715,-0.6713,-0.6715,-0.6719,-0.6717,-0.6719,-0.6719,-0.6716,-0.6713,-0.6713,-0.6712,-0.6705,-0.6704,-0.6703,0,0,0,0,0,0,-0.6696,-0.6702,-0.6705,-0.6702,-0.6704,-0.6708,-0.6706,-0.671,-0.671,-0.6711,-0.6715,-0.6716,-0.6713,-0.6714,-0.6717,-0.6711,-0.6716,-0.6715,-0.671,-0.6709,-0.6708,-0.6708,-0.6723,0,0,0,0,0,-0.6694,-0.6694,-0.6699,-0.6696,-0.6697,-0.6701,-0.6701,-0.6705,-0.6706,-0.6707,-0.6709,-0.6711,-0.671,-0.671,-0.671,-0.6705,-0.6706,-0.6703,-0.6702,-0.6701,-0.6701,-0.6699,-0.6698,-0.671,-0.671,-0.671,0,0,-0.6688,-0.6692,-0.6691,-0.6694,-0.6696,-0.6695,-0.6702,-0.6701,-0.6701,-0.6707,-0.6705,-0.6707,-0.6708,-0.6705,-0.6704,-0.6706,-0.6698,-0.6701,-0.67,-0.67,-0.6698,-0.6697,-0.6696,-0.671,-0.671,-0.671,0,0,-0.6679,-0.6681,-0.6679,-0.6681,-0.6685,-0.6688,-0.6687,-0.6691,-0.6693,-0.6692,-0.6696,-0.6696,-0.6695,-0.6697,-0.6697,-0.6689,-0.6692,-0.6689,-0.6683,-0.6682,-0.6681,-0.668,-0.6677,-0.6676,-0.6688,-0.6688,-0.6688,0,-0.6671,-0.6671,-0.6677,-0.6677,-0.6678,-0.6684,-0.6682,-0.6684,-0.6686,-0.6687,-0.669,-0.669,-0.6691,-0.6689,-0.6687,-0.6687,-0.6687,-0.6688,-0.6681,-0.668,-0.6679,-0.6676,-0.6675,-0.6688,-0.6688,-0.6688,-0.6688,0,-0.6663,-0.6663,-0.6661,-0.6664,-0.6665,-0.6663,-0.6669,-0.6669,-0.6673,-0.6676,-0.6674,-0.6677,-0.6677,-0.6677,-0.668,-0.6675,-0.6676,-0.668,-0.6684,-0.6677,-0.6675,-0.6674,-0.6687,-0.6688,-0.6688,-0.6688,0,0,-0.6646,-0.6654,-0.6653,-0.6655,-0.6659,-0.6659,-0.6658,-0.666,-0.666,-0.6662,-0.6661,-0.6661,-0.6665,-0.6665,-0.6669,-0.6667,-0.6661,-0.6671,-0.6671,-0.6669,-0.6656,-0.6653,-0.6652,-0.6664,-0.6663,-0.6663,-0.6656,0,-0.6637,-0.6636,-0.6642,-0.6639,-0.6639,-0.6647,-0.6646,-0.6648,-0.6651,-0.6652,-0.6655,-0.6655,-0.666,-0.666,-0.6659,-0.6662,-0.6659,-0.6663,-0.6662,-0.6662,-0.6661,-0.6651,-0.6648,-0.6641,-0.6655,-0.6655,-0.6655,0,-0.6626,-0.6628,-0.6626,-0.6632,-0.6632,-0.6631,-0.6634,-0.6634,-0.6638,-0.664,-0.6641,-0.6646,-0.6645,-0.665,-0.6649,-0.6651,-0.6652,-0.6653,-0.6653,-0.6653,-0.6658,-0.665,-0.6638,-0.6637,-0.6653,-0.6654,-0.6654,0,-0.6614,-0.6616,-0.6616,-0.6617,-0.6624,-0.6623,-0.6626,-0.6629,-0.663,-0.6632,-0.6633,-0.6635,-0.6636,-0.6637,-0.6641,-0.6644,-0.664,-0.6645,-0.6641,-0.6641,-0.6639,-0.6639,-0.6627,-0.664,-0.664,-0.664,-0.664,0,-0.6603,-0.6601,-0.661,-0.661,-0.6608,-0.6615,-0.6613,-0.6617,-0.662,-0.662,-0.6626,-0.6626,-0.6632,-0.6633,-0.6636,-0.6635,-0.6635,-0.6637,-0.6638,-0.6636,-0.6636,-0.6636,-0.6637,-0.664,-0.664,-0.664,-0.664,0,-0.6588,-0.6595,-0.6594,-0.6601,-0.6603,-0.6602,-0.6607,-0.6607,-0.6611,-0.6611,-0.6611,-0.6617,-0.6619,-0.6624,-0.6625,-0.6628,-0.6625,-0.6627,-0.6624,-0.6625,-0.6621,-0.6621,-0.6608,-0.6607,-0.6621,-0.6621,-0.6621,0,-0.6581,-0.658,-0.6587,-0.6588,-0.6591,-0.6592,-0.6593,-0.66,-0.6601,-0.6606,-0.6605,-0.6607,-0.6609,-0.661,-0.6614,-0.6616,-0.6618,-0.6613,-0.6618,-0.6616,-0.6617,-0.6617,-0.6617,-0.6612,-0.6612,-0.6611,-0.6611,0,-0.6566,-0.657,-0.6572,-0.6576,-0.6578,-0.658,-0.6584,-0.6584,-0.6592,-0.6593,-0.6594,-0.6596,-0.6598,-0.66,-0.6603,-0.6605,-0.6609,-0.661,-0.6609,-0.6607,-0.6606,-0.6607,-0.6621,-0.661,-0.661,-0.661,-0.661,-0.661,-0.6555,-0.6555,-0.656,-0.6563,-0.6566,-0.6569,-0.657,-0.6575,-0.6576,-0.658,-0.6584,-0.6585,-0.6589,-0.6593,-0.6595,-0.6596,-0.6598,-0.6597,-0.6597,-0.6596,-0.6596,-0.6606,-0.6596,-0.6596,-0.6597,-0.6597,-0.6597,0,-0.6541,-0.6546,-0.6548,-0.6553,-0.6555,-0.656,-0.6564,-0.6565,-0.6566,-0.657,-0.6572,-0.6575,-0.6576,-0.6581,-0.6584,-0.6584,-0.6586,-0.6584,-0.6584,-0.6584,-0.6593,-0.6594,-0.6582,-0.6582,-0.6582,-0.6582,-0.6582,-0.6582,-0.6534,-0.6534,-0.6539,-0.6541,-0.6545,-0.6547,-0.6549,-0.6552,-0.6555,-0.6557,-0.656,-0.6563,-0.6568,-0.6571,-0.6573,-0.6574,-0.6574,-0.6572,-0.6574,-0.6582,-0.6584,-0.6585,-0.6585,-0.6572,-0.6572,-0.6565,-0.6565,-0.6565]}]]